Regional Weather Roundup
Issued by NWS

Home | Current Version | Previous Version | Text Only | Print | Product List | Glossary On
Versions: 1 2 3 4 5 6 7 8 9 10 11 12 13 14 15 16 17 18 19 20 21 22 23 24 25 26 27 28 29 30 31 32 33 34 35 36 37 38 39 40 41 42 43 44 45 46 47 48 49 50
000
ASUS44 KFWD 191815
RWRTX
NORTH TEXAS HOURLY WEATHER ROUNDUP
NATIONAL WEATHER SERVICE FORT WORTH TX
100 PM CDT THU OCT 19 2017

NOTE: "FAIR" INDICATES FEW OR NO CLOUDS BELOW 12,000 FEET WITH NO
SIGNIFICANT WEATHER AND/OR OBSTRUCTIONS TO VISIBILITY.

TXZ118-119-191900-
DALLAS/FORT WORTH METROPLEX

CITY           SKY/WX    TMP DP  RH WIND       PRES   REMARKS
DFW AIRPORT    PTSUNNY   79  55  43 S10       30.14F
6HR MIN TEMP:  59; 6HR MAX TEMP:  79;

DALLAS LOVE    PTSUNNY   77  55  46 SE10      30.16F
6HR MIN TEMP:  60; 6HR MAX TEMP:  77;

FTW MEACHAM    FAIR      79  58  48 S10       30.15F
6HR MIN TEMP:  59; 6HR MAX TEMP:  79;

DAL-EXECUTIVE  FAIR      76  56  49 SE8       30.16F
6HR MIN TEMP:  57; 6HR MAX TEMP:  76;

FTW-ALLIANCE   FAIR      78  56  46 SE8       30.15F
6HR MIN TEMP:  53; 6HR MAX TEMP:  79;

FTW-SPINKS     SUNNY     79  55  44 SE5       30.17F
ARLINGTON      FAIR      75  57  53 SE9       30.16F
6HR MIN TEMP:  51; 6HR MAX TEMP:  76;

GRAND PRAIRIE  SUNNY     75  54  46 SE9       30.18F
ADDISON        PTSUNNY   77  55  47 S7        30.17
MESQUITE       SUNNY     75  55  50 S8        30.18F
LANCASTER      FAIR      74  57  54 CALM      30.18F
6HR MIN TEMP:  51; 6HR MAX TEMP:  75;

$$

TXZ091>094-102>105-117-120-121-131>134-191900-
NORTH CENTRAL TEXAS

CITY           SKY/WX    TMP DP  RH WIND       PRES   REMARKS
SHRMAN/DENISON FAIR      75  57  53 S9        30.18F
6HR MIN TEMP:  52; 6HR MAX TEMP:  75;

GAINESVILLE    FAIR      74  54  48 SE3       30.18F
6HR MIN TEMP:  47; 6HR MAX TEMP:  75;

BOWIE          FAIR      75  56  51 SE5       30.15F
6HR MIN TEMP:  49; 6HR MAX TEMP:  75;

BRIDGEPORT     FAIR      78  53  42 SE8       30.16F
6HR MIN TEMP:  48; 6HR MAX TEMP:  78;

DECATUR        FAIR      76  56  50 SE7       30.14F
6HR MIN TEMP:  52; 6HR MAX TEMP:  76;

DENTON         FAIR      77  55  46 S12       30.15F
6HR MIN TEMP:  53; 6HR MAX TEMP:  77;

MCKINNEY       FAIR      77  58  51 SE10      30.17F
6HR MIN TEMP:  50; 6HR MAX TEMP:  77;

BONHAM         FAIR      75  55  50 S6        30.18F
6HR MIN TEMP:  49; 6HR MAX TEMP:  76;

GREENVILLE     FAIR      81  55  41 S9        30.18F
ROCKWALL       FAIR      77  53  44 S12G21    30.17F
6HR MIN TEMP:  58; 6HR MAX TEMP:  77;

TERRELL        FAIR      77  54  44 VRB6      30.17F
6HR MIN TEMP:  53; 6HR MAX TEMP:  77;

WAXAHACHIE     FAIR      76  58  52 SE7       30.18F
6HR MIN TEMP:  52; 6HR MAX TEMP:  76;

CLEBURNE       FAIR      75  59  57 S10       30.17F
GRANBURY       FAIR      78  56  45 SE8       30.15F
6HR MIN TEMP:  57; 6HR MAX TEMP:  78;

$$

TXZ083>090-098>101-113>116-127>130-139>142-154-155-191900-
WESTERN NORTH TEXAS

CITY           SKY/WX    TMP DP  RH WIND       PRES   REMARKS
WICHITA FALLS  PTSUNNY   78  54  43 S12       30.12F
6HR MIN TEMP:  49; 6HR MAX TEMP:  78; 6HR PCP: TRACE;

WF-KICKAPOO    FAIR      77  54  43 S9G16     30.15F
6HR MIN TEMP:  54; 6HR MAX TEMP:  77;

VERNON         FAIR      77  47  35 S12       30.12F
6HR MIN TEMP:  41; 6HR MAX TEMP:  85;

ABILENE        FAIR      76  53  44 S15       30.12F
6HR MIN TEMP:  59; 6HR MAX TEMP:  76;

ABILENE-DYESS  MOSUNNY   76  55  48 SE21      30.11F
6HR MIN TEMP:  59; 6HR MAX TEMP:  76;

GRAHAM         FAIR      78  54  42 SE8       30.12F
6HR MIN TEMP:  52; 6HR MAX TEMP:  78;

BRECKENRIDGE   FAIR      79  50  36 SE9       30.12F HAZE
6HR MIN TEMP:  55; 6HR MAX TEMP:  80;

CISCO          FAIR      75  52  43 SE14      30.15F
EASTLAND       FAIR      77  53  44 SE10      30.14F
6HR MIN TEMP:  46; 6HR MAX TEMP:  77;

RANGER         FAIR      75  53  45 S9        30.15F
6HR MIN TEMP:  42; 6HR MAX TEMP:  91;

MINERAL WELLS  FAIR      79  51  37 S12       30.13F
6HR MIN TEMP:  54; 6HR MAX TEMP:  79;

STEPHENVILLE   FAIR      77  51  40 SE9       30.17F
6HR MIN TEMP:  52; 6HR MAX TEMP:  77;

COMANCHE       FAIR      78  54  43 S7        30.15F
6HR MIN TEMP:  50; 6HR MAX TEMP:  78;

BROWNWOOD      FAIR      77  54  44 S12       30.14F
COLEMAN        FAIR      76  51  42 S8G16     30.14F
6HR MIN TEMP:  49; 6HR MAX TEMP:  76;

$$

TXZ143>147-156>162-174-175-191900-
CENTRAL TEXAS

CITY           SKY/WX    TMP DP  RH WIND       PRES   REMARKS
WACO           FAIR      77  59  53 S9        30.15F
6HR MIN TEMP:  53; 6HR MAX TEMP:  79;

WACO-TSTC      SUNNY     81  59  47 S9        30.15F
WACO-MCGREGOR  FAIR      80  60  50 VRB7      30.14F
6HR MIN TEMP:  52; 6HR MAX TEMP:  80;

HILLSBORO      FAIR      78  59  51 SE8       30.16F
6HR MIN TEMP:  59; 6HR MAX TEMP:  78;

CORSICANA      FAIR      78  62  57 S9        30.17F
6HR MIN TEMP:  56; 6HR MAX TEMP:  78;

MEXIA          FAIR      77  59  53 S5        30.15F
6HR MIN TEMP:  52; 6HR MAX TEMP:  78;

HEARNE         PTSUNNY   80  61  52 S7        30.15F
6HR MIN TEMP:  51; 6HR MAX TEMP:  80;

CAMERON        PTSUNNY   80  61  51 CALM      30.14F
6HR MIN TEMP:  55; 6HR MAX TEMP:  81;

TEMPLE         FAIR      78  61  55 SE9       30.15F
6HR MIN TEMP:  55; 6HR MAX TEMP:  79;

KILLEEN        FAIR      76  60  57 SE13      30.13F
6HR MIN TEMP:  54; 6HR MAX TEMP:  77;

KILLEEN-SKYLRK FAIR      78  63  59 VRB7      30.14F
6HR MIN TEMP:  54; 6HR MAX TEMP:  78;

FORT HOOD      FAIR      76  60  58 S5        30.11F
6HR MIN TEMP:  55; 6HR MAX TEMP:  77;

GATESVILLE     FAIR      77  59  53 SE7       30.16F
HAMILTON       FAIR      76  57  52 SE9       30.16F
6HR MIN TEMP:  53; 6HR MAX TEMP:  76;

LAMPASAS       FAIR      76  61  60 S6        30.14F
6HR MIN TEMP:  55; 6HR MAX TEMP:  76;

$$

TXZ095>097-106>112-122>126-135>138-148>153-164>167-191900-
EAST TEXAS

CITY           SKY/WX    TMP DP  RH WIND       PRES   REMARKS
PARIS          FAIR      76  56  49 S8        30.19F
6HR MIN TEMP:  50; 6HR MAX TEMP:  77;

SULPHUR SPRNGS FAIR      79  58  48 SE7       30.19F
6HR MIN TEMP:  50; 6HR MAX TEMP:  79;

MOUNT PLEASANT FAIR      77  58  51 SE6       30.20F
6HR MIN TEMP:  47; 6HR MAX TEMP:  78;

GILMER         FAIR      76  59  55 E7        30.18F
6HR MIN TEMP:  49; 6HR MAX TEMP:  76;

MINEOLA        FAIR      75  59  57 SE5       30.18F
TYLER          FAIR      76  57  51 VRB3      30.17F
6HR MIN TEMP:  53; 6HR MAX TEMP:  78;

LONGVIEW       FAIR      79  60  52 CALM      30.18F
6HR MIN TEMP:  50; 6HR MAX TEMP:  79;

MARSHALL       FAIR      75  54  48 E3        30.20F
6HR MIN TEMP:  45; 6HR MAX TEMP:  76;

ATHENS         FAIR      77  59  53 CALM      30.15F
PALESTINE      FAIR      78  62  57 SE5       30.18F
JACKSONVILLE   FAIR      76  60  58 SE6       30.19F
HENDERSON      FAIR      80  59  49 NW3       30.19F
6HR MIN TEMP:  49; 6HR MAX TEMP:  80;

CENTER         CLOUDY    79  62  55 CALM      30.20F
6HR MIN TEMP:  53; 6HR MAX TEMP:  79;

NACOGDOCHES    FAIR      78  61  55 E8        30.18F
6HR MIN TEMP:  50; 6HR MAX TEMP:  78;

LUFKIN         FAIR      78  62  57 E7        30.17F
6HR MIN TEMP:  54; 6HR MAX TEMP:  78;

$$

SUPPLEMENTAL OBSERVATIONS (NWS FORT WORTH AREA)

CITY           SKY/WX    TMP DP  RH WIND       PRES   REMARKS
DENISON DAM      N/A     73  55  53 S6          N/A



USA.gov is the U.S. government's official web portal to all federal, state and local government web resources and services.